User: anonymous   Login
Location: Unspecified
(0.0000°N, 0.0000°E)
Time: 17:26:55
(UTC+00:00)
Language:

JUGNU - Orbit

View from above orbital plane
View from above orbital plane
View from above satellite
View from above satellite

Ground track
Ground track

The orbit data is extracted from the following two-line orbital elements,

1 37839U 11058B   18114.87492272  .00000330  00000-0  34403-4 0  9995
2 37839  19.9624   0.5238 0018801  19.5238  63.0056 14.12616846337829
Epoch (UTC): 24 April 2018 20:59:53
Eccentricity: 0.0018801
inclination: 19.9624°
perigee height: 837 km
apogee height: 864 km
right ascension of ascending node: 0.5238°
argument of perigee: 19.5238°
revolutions per day: 14.12616846
mean anomaly at epoch: 63.0056°
orbit number at epoch: 33782

The dashed part of the orbit path shows where the satellite is in the earth's shadow,  

DLR